SCP
0 0 0 0 0 0 0 0 0 0 0 0 0 0 0 0 0 0 0 0 -0 -0 -1 -0 -0 -0 -0 -0 -1 -1 -1 -1 -0 -0 -0 -0 -0 0 0 0 0 0 0 0 0 0 -0 -0 0
0 0 0 0 0 0 0 0 0 0 0 0 0 0 0 0 0 0 0 0 0 -0 -0 -0 -1 -1 -0 -0 -1 -1 -1 -1 -1 -0 -0 -0 0 0 0 0 0 0 0 0 0 0 0 0 0
0 0 0 0 0 0 0 0 0 0 0 0 0 0 0 0 0 0 0 0 0 0 0 -0 -1 -1 -0 -0 -0 -1 -1 -1 -0 -0 -0 -0 0 0 0 0 0 0 0 0 0 0 0 0 0
0 0 0 0 0 0 0 0 0 0 0 0 0 0 0 0 0 0 0 0 0 0 0 -0 -0 -0 -0 -0 -0 -1 -1 -1 -0 -0 -0 0 0 0 0 0 0 0 0 0 0 -0 -0 0 0
0 0 0 0 0 0 0 0 0 0 0 0 0 0 0 0 1 0 0 0 0 0 0 0 0 0 -0 -0 -0 -0 -1 -1 -0 -0 0 0 0 0 0 0 0 0 0 0 -0 -0 -0 0 0
0 0 0 0 0 0 0 0 0 0 0 0 0 0 0 0 0 1 0 0 0 0 0 0 0 0 0 0 0 -0 -0 -0 -0 -0 0 0 0 0 0 0 0 0 0 -0 -0 -0 -0 -0 0
0 0 0 0 0 0 0 0 0 0 0 0 0 0 0 0 0 0 0 0 0 0 0 0 0 0 0 0 0 0 0 -0 -0 -0 0 0 0 0 0 0 0 0 -0 -0 -0 -0 -0 -0 0
0 0 0 0 0 0 0 0 0 0 0 0 0 0 0 0 0 0 0 0 0 0 0 0 0 0 0 0 0 0 0 0 0 0 0 0 0 -0 -0 -0 -0 -0 -0 0 0 0 -0 -0 -0
0 0 0 0 0 0 0 0 0 0 0 0 0 0 0 0 0 0 0 0 0 0 0 0 0 0 0 0 0 0 0 0 0 -0 -0 -0 -0 -0 -0 -0 -0 0 0 0 0 0 0 0 0
0 0 0 0 0 0 0 0 0 0 0 0 0 0 0 0 0 0 0 0 0 0 0 0 1 0 0 0 0 0 0 0 0 -0 -0 -0 -0 -0 -0 -0 0 0 0 0 0 0 0 0 0
0 0 0 0 0 0 0 0 0 0 0 0 0 0 0 0 0 0 0 0 0 0 0 0 1 1 0 0 0 0 0 0 0 0 -0 -0 -0 -0 -0 -0 0 0 0 0 0 0 0 0 0
0 0 0 0 0 0 0 0 0 0 0 0 0 0 0 0 0 0 0 0 0 0 0 0 1 1 1 1 1 1 0 0 0 0 0 0 0 0 0 0 0 0 0 0 0 0 0 0 0
0 0 0 0 0 0 0 0 0 0 0 0 0 0 0 0 0 0 0 0 0 0 0 0 1 1 2 2 1 1 1 1 1 0 0 0 0 0 0 0 0 0 0 0 0 0 0 0 0
0 0 0 0 0 0 0 0 0 0 0 0 0 0 0 0 0 0 0 0 0 0 1 1 1 2 2 2 3 2 2 1 1 1 1 1 1 1 0 0 0 0 0 0 0 0 0 0 0
0 0 0 0 0 0 0 0 0 0 0 0 0 0 0 0 0 0 0 0 0 0 0 1 1 2 3 3 3 3 2 2 2 1 2 1 1 2 1 1 0 0 0 0 0 0 0 0 0
0 0 0 0 0 0 0 0 0 0 0 0 0 0 0 0 0 0 0 0 0 0 1 1 1 1 2 4 5 5 3 3 2 2 3 3 2 1 1 1 1 0 1 0 0 0 0 0 0
0 0 0 0 0 0 0 0 0 0 0 0 0 0 0 0 0 0 0 0 0 0 1 1 1 1 2 3 3 3 3 3 2 2 2 2 3 2 2 1 1 1 1 0 0 0 1 0 0
0 0 0 0 0 0 0 0 0 0 0 0 0 0 0 0 0 0 0 0 0 0 0 1 2 2 2 3 3 2 2 3 2 2 2 3 3 2 4 2 3 2 1 0 1 1 0 0 0
0 0 0 0 0 0 0 0 0 0 0 0 0 0 0 0 0 0 0 0 0 0 0 0 1 3 3 4 3 3 2 3 2 2 2 2 2 2 3 3 3 3 2 2 3 1 1 1 1
0 0 0 0 0 0 0 0 0 0 0 0 0 0 0 0 0 0 0 0 0 0 0 0 1 2 5 4 5 4 3 3 3 2 3 2 2 2 4 5 3 4 3 3 2 2 1 1 1
0 0 0 0 0 0 -0 -0 0 0 0 0 0 0 0 0 0 0 0 0 0 0 0 0 1 3 3 4 4 5 5 3 2 3 3 3 3 2 2 2 5 6 8 3 4 4 2 1 3
0 0 0 0 0 0 0 -0 0 0 0 0 0 0 0 0 0 0 0 0 0 0 0 0 0 1 2 3 4 5 4 4 4 3 3 3 2 2 2 3 4 7 3 2 3 3 4 4 3
0 0 0 0 0 0 0 0 0 0 0 0 0 0 0 0 0 0 0 0 0 0 0 0 0 1 2 4 5 7 6 5 4 3 5 3 3 2 2 2 3 3 3 3 3 4 2 3 4
0 0 0 0 0 0 0 0 0 0 0 0 0 0 0 0 0 0 0 0 0 0 0 0 0 1 1 4 4 8 7 8 6 7 8 7 3 3 2 2 3 3 3 4 4 3 2 5 4
0 0 0 0 0 0 0 0 0 0 0 0 0 0 0 0 0 0 0 0 0 0 0 0 0 1 1 2 3 4 6 6 10 7 6 8 8 4 4 5 6 4 4 4 4 4 3 3 2
0 0 0 0 0 0 0 0 0 0 0 0 0 0 0 0 0 0 0 0 0 0 0 0 0 0 1 1 3 4 4 6 6 6 5 5 4 5 7 4 5 4 4 4 4 4 3 3 2
0 0 0 0 0 0 0 0 0 0 0 0 0 0 0 0 0 0 0 0 0 0 0 0 0 0 1 1 2 4 4 5 5 6 8 8 7 4 7 6 5 4 3 3 3 3 2 3 2
0 0 0 0 0 0 0 0 0 0 0 0 0 0 0 0 0 0 0 0 0 0 0 0 0 0 0 1 2 5 5 5 5 6 6 7 7 6 5 5 4 4 4 4 5 4 3 3 1
0 0 0 0 0 0 0 0 0 0 0 0 0 0 0 0 0 0 0 0 0 0 0 0 0 0 1 1 3 4 5 5 5 4 3 4 4 3 3 3 4 4 4 4 4 3 3 3 2
0 0 0 0 0 0 0 0 0 0 0 0 0 0 0 0 0 0 0 0 0 0 0 0 0 0 1 2 3 4 3 3 3 3 3 2 2 2 1 1 2 2 2 3 3 3 2 2 1
Wind_Speed_500mb
15 15 14 12 14 12 23 13 4 10 9 7 19 17 14 26 13 6 2 22 38 51 52 52 54 58 59 59 55 49 49 47 45 41 36 30 30 34 36 37 36 33 30 27 26 25 26 27 27
17 14 14 12 16 20 21 10 23 2 9 15 8 13 16 15 8 8 6 27 42 49 54 56 56 57 59 58 54 50 51 51 49 42 35 30 32 36 37 36 34 32 30 28 26 25 26 26 24
15 12 21 11 23 24 12 15 13 5 5 14 9 6 11 7 8 7 10 32 46 45 53 57 57 58 58 57 52 50 51 53 50 43 36 33 36 38 39 38 35 32 30 28 26 25 25 24 21
11 14 17 21 30 23 4 11 1 6 4 13 13 8 5 10 9 6 22 34 43 43 48 54 59 59 58 55 50 48 50 55 51 44 38 35 38 41 40 39 36 33 30 28 25 24 23 21 18
20 19 22 31 39 16 9 12 11 11 12 15 18 12 2 15 17 11 25 33 38 39 43 54 58 57 56 53 50 49 51 56 50 45 40 38 40 41 40 37 35 32 29 27 24 22 19 17 13
30 27 29 36 38 17 9 19 17 23 14 14 17 18 13 17 14 11 22 27 34 39 40 57 57 56 54 53 51 49 54 55 52 48 43 42 43 42 41 38 35 32 29 26 23 21 17 13 10
35 25 39 42 34 22 19 20 27 17 17 20 20 17 6 22 17 5 17 22 34 38 40 48 60 58 55 53 53 51 51 54 54 52 48 46 44 43 42 39 35 31 27 25 22 19 16 13 10
33 25 42 41 32 28 18 28 28 27 26 21 14 3 7 32 21 8 15 22 33 38 41 42 51 61 59 57 53 51 49 52 54 55 52 49 47 45 43 39 36 32 29 26 21 18 14 11 8
23 22 31 41 27 24 15 30 38 26 29 31 33 23 22 23 20 10 19 25 34 41 44 44 49 54 54 51 58 54 51 50 53 55 55 52 48 48 46 42 39 35 32 28 22 18 15 12 9
30 26 35 8 4 14 22 30 34 35 42 38 39 36 26 18 13 15 26 32 41 44 47 47 52 53 54 49 50 61 56 55 56 59 60 56 45 39 36 45 41 39 35 31 26 21 16 13 9
30 30 23 10 19 27 36 36 38 40 42 48 40 45 36 31 29 25 30 38 41 43 45 47 50 52 53 50 47 52 46 47 57 62 63 59 43 40 41 35 45 42 39 33 28 23 19 16 16
16 22 21 23 27 31 35 40 44 44 50 47 47 47 49 46 39 33 30 38 42 44 45 48 50 54 57 50 49 47 49 49 47 57 65 57 52 50 44 34 34 41 32 30 28 21 22 18 15
25 13 19 24 24 30 33 40 39 44 37 39 46 46 49 50 46 40 35 33 40 47 49 51 52 54 62 66 52 52 52 51 50 52 64 59 54 52 49 36 32 29 28 29 29 25 22 17 15
15 13 16 17 22 26 30 37 37 26 18 29 32 37 39 44 48 46 40 37 39 47 51 52 57 60 62 68 70 68 64 53 53 50 62 72 68 63 60 57 52 43 34 27 26 26 23 21 17
13 19 21 25 29 20 26 32 40 39 37 28 26 31 35 38 40 45 43 40 38 47 49 55 59 58 65 66 70 70 60 56 55 55 65 72 74 72 67 61 56 53 49 40 35 33 28 24 22
19 14 22 17 13 15 13 26 11 17 18 25 28 28 30 33 32 31 32 30 29 39 43 50 51 57 63 67 72 76 69 66 54 57 66 77 77 75 72 64 61 55 49 45 43 39 30 23 22
18 20 13 9 14 15 23 23 3 13 32 40 38 35 33 33 35 32 34 30 28 37 41 45 52 55 62 62 56 59 62 60 54 55 56 71 80 79 76 66 47 53 50 47 49 43 40 28 26
10 18 15 20 8 18 27 34 33 36 36 39 37 40 38 36 37 33 31 33 35 35 38 43 49 55 52 50 54 51 54 57 57 58 59 73 70 67 76 71 69 64 47 39 41 45 39 38 26
13 16 21 17 17 24 29 32 31 38 39 41 39 34 36 36 33 33 33 37 42 46 50 53 56 61 52 56 56 55 61 60 57 58 63 67 74 87 88 76 76 66 60 55 55 53 50 40 40
20 23 25 19 21 22 30 36 34 36 42 44 42 40 40 41 41 37 36 34 45 53 57 63 66 71 70 61 60 56 54 54 52 52 56 63 71 71 76 71 66 66 63 67 60 60 55 49 39
24 23 22 27 26 31 40 41 34 31 33 33 41 46 48 49 47 46 43 37 36 48 57 68 75 76 78 74 61 62 53 50 53 61 62 69 82 78 80 74 76 72 78 75 67 69 65 45 37
23 9 17 27 27 28 28 35 35 29 28 29 38 43 46 48 46 41 42 43 43 39 39 51 71 84 83 85 64 71 76 69 74 66 62 62 75 82 81 82 86 88 91 80 62 65 64 54 43
19 9 22 31 33 37 40 27 32 34 33 27 20 28 38 51 59 58 50 50 46 41 40 43 49 67 86 75 86 74 72 63 50 51 58 58 59 72 75 79 78 80 80 69 53 53 51 56 49
21 27 31 33 32 29 35 19 12 21 28 27 36 48 50 49 46 34 37 37 42 43 43 44 47 56 66 76 83 87 83 78 57 56 58 57 48 58 66 69 72 70 66 60 59 54 50 56 68
19 25 20 25 23 24 13 20 21 35 21 22 28 40 41 34 34 32 33 31 35 42 46 47 49 53 55 63 75 85 88 74 75 63 54 49 53 51 60 70 67 61 63 54 51 53 55 55 56
10 13 17 26 26 34 39 19 15 14 11 8 12 17 19 26 28 26 26 33 34 39 42 39 46 53 50 55 67 72 76 72 70 64 55 54 51 50 51 56 55 53 48 46 48 50 51 57 62
4 17 15 23 32 30 26 29 28 14 9 10 10 16 20 28 37 42 41 41 42 42 46 46 39 46 51 57 59 64 68 70 67 62 59 52 55 51 47 44 45 47 47 46 45 43 48 53 52
17 10 12 9 11 20 18 32 27 6 13 18 26 29 38 40 41 45 48 45 42 41 44 46 41 37 46 53 58 64 69 69 61 57 54 54 48 46 43 43 43 44 45 41 46 41 40 44 45
13 16 12 9 9 10 19 17 16 25 26 30 21 32 43 40 45 44 49 47 44 41 39 43 43 36 38 47 54 59 57 59 58 54 51 50 52 52 51 43 39 39 40 41 42 40 38 41 40
20 25 22 15 14 14 15 35 26 13 18 25 40 58 43 38 43 40 46 47 45 43 41 36 38 34 27 40 46 53 54 57 56 56 56 54 50 46 40 35 33 32 31 32 32 33 33 32 31
Wind_Direction_500mb
304 312 300 254 238 235 240 214 351 189 198 354 293 263 300 321 308 6 136 177 166 166 176 181 179 176 176 178 180 180 180 178 173 168 164 162 163 160 157 154 155 155 153 150 145 143 139 134 133
285 310 268 255 249 219 212 209 204 42 332 330 303 238 251 271 316 307 106 181 167 170 177 181 182 180 179 182 185 186 186 183 178 173 171 170 169 164 162 160 161 159 157 151 147 142 141 136 133
274 292 268 236 237 241 243 178 106 328 46 2 323 279 318 344 326 291 243 173 165 170 176 182 181 182 183 184 187 189 190 186 182 178 178 179 174 169 167 166 165 162 158 153 149 145 144 142 135
237 240 242 243 231 225 264 141 223 321 121 3 344 239 263 25 335 315 159 160 168 171 172 185 183 182 184 183 184 185 188 188 187 186 186 185 178 175 174 171 168 167 162 158 154 151 150 146 142
221 242 245 231 235 221 225 256 298 303 318 345 350 349 60 24 18 148 163 163 170 174 175 183 185 185 185 184 184 184 188 189 193 194 194 190 184 182 178 176 174 171 169 166 161 156 153 150 151
217 234 238 233 226 221 253 266 271 287 288 312 346 323 61 36 18 138 166 169 178 178 180 185 188 189 188 188 188 189 189 194 198 202 201 196 189 186 183 181 180 178 176 172 168 163 157 156 160
229 215 236 246 243 222 252 268 266 285 285 292 332 313 113 18 3 157 177 180 183 181 181 187 188 193 192 193 194 196 199 201 203 205 204 198 194 191 189 186 184 185 181 179 175 168 164 169 178
225 241 242 243 245 237 227 256 256 258 275 290 280 236 322 338 344 200 192 185 186 188 185 188 188 194 196 197 200 200 206 207 206 206 205 200 196 196 194 193 191 189 186 187 183 178 179 193 207
210 227 234 235 226 235 240 248 249 264 263 269 273 271 298 320 339 218 196 191 190 194 192 190 192 195 195 198 202 205 205 209 210 209 207 203 201 200 200 198 195 195 193 193 191 192 197 210 231
209 222 237 248 229 238 232 249 260 269 268 259 267 268 273 283 310 259 224 210 199 200 200 196 196 195 194 198 201 203 206 207 209 211 209 205 200 205 206 206 200 198 199 198 196 200 210 224 241
219 239 237 209 229 237 251 252 254 260 261 260 268 272 263 267 274 265 246 229 220 208 205 203 203 197 195 197 199 199 201 204 207 210 209 204 203 203 200 208 202 205 204 203 205 206 216 229 234
223 235 242 230 233 239 254 262 261 254 263 269 269 267 272 267 265 261 258 239 228 222 215 208 208 203 201 199 200 199 200 201 202 206 207 203 204 207 201 202 203 207 213 204 207 210 214 239 235
225 210 235 242 244 251 257 258 260 258 257 263 265 263 264 266 263 259 255 247 236 228 222 216 210 211 212 205 205 202 201 204 204 206 210 205 205 209 205 203 203 209 210 216 216 213 225 225 220
173 202 217 232 243 242 251 259 249 246 234 250 257 261 259 259 259 258 255 254 240 231 226 217 217 220 220 218 214 214 213 209 205 207 213 213 212 215 213 215 217 218 214 213 225 229 231 226 224
183 232 213 231 239 252 272 262 252 258 262 269 265 264 260 256 259 254 255 260 248 234 229 224 220 223 229 227 222 222 215 208 210 207 215 217 217 217 213 220 223 225 228 226 231 239 235 239 230
234 243 250 144 209 225 220 268 205 199 260 269 277 276 265 259 263 261 263 272 255 240 231 228 221 222 230 232 223 225 219 219 213 211 219 223 221 221 222 223 224 227 228 231 231 237 237 226 238
204 263 219 263 215 261 237 281 301 251 279 281 275 267 269 268 263 268 274 275 281 246 233 231 230 221 232 229 220 219 221 217 216 216 216 226 223 224 224 222 223 228 232 229 236 234 236 236 233
229 237 227 266 263 240 269 273 278 278 275 271 276 275 267 265 266 270 276 280 277 271 244 238 234 231 227 222 222 216 216 217 214 217 217 222 227 230 231 231 233 233 228 235 233 234 239 235 236
252 256 259 261 266 268 273 278 283 287 282 274 268 264 269 274 273 276 288 289 281 273 270 258 247 238 223 223 221 214 217 218 215 217 216 227 228 227 228 226 236 236 240 233 239 244 239 246 238
236 246 252 256 249 261 268 275 281 278 279 276 275 272 270 269 266 266 270 276 272 266 262 259 252 247 241 228 222 216 216 218 219 218 219 223 227 229 231 223 230 239 244 242 239 242 244 244 240
231 257 278 285 297 273 266 272 267 261 236 263 274 275 271 268 267 267 263 264 273 270 264 256 251 247 247 240 233 226 221 220 225 221 224 230 227 231 235 233 221 230 230 247 247 249 246 236 235
259 264 276 286 286 289 323 292 289 278 277 263 268 275 275 273 270 263 261 263 262 272 271 265 254 246 243 244 227 230 235 230 241 235 233 234 229 228 232 229 227 229 232 239 243 244 241 237 235
281 316 285 289 283 291 281 269 280 281 282 294 301 300 282 279 279 274 272 267 263 266 267 265 260 249 242 233 234 225 224 232 232 227 229 234 229 223 222 224 226 229 236 238 234 241 244 228 220
302 278 277 266 266 270 280 306 308 313 327 322 311 309 308 302 291 300 292 286 281 282 277 271 263 256 245 234 233 226 225 222 223 225 221 228 219 225 223 218 219 226 233 230 239 238 237 242 237
260 266 279 279 254 259 323 304 288 304 0 327 315 306 296 313 310 307 301 308 303 300 289 275 266 259 253 235 227 228 227 225 218 219 213 206 200 209 217 216 217 221 227 227 232 240 244 244 246
283 306 285 289 290 299 315 278 264 8 59 329 354 5 353 338 324 317 318 321 323 324 320 298 268 256 248 237 228 226 225 221 221 219 212 207 207 211 212 215 216 220 224 225 226 232 239 243 247
177 253 358 292 276 267 256 256 256 231 178 254 310 328 338 338 334 334 325 318 316 316 323 320 293 258 244 235 228 223 221 214 214 210 205 206 207 208 204 209 214 222 224 223 224 230 235 235 247
262 15 253 217 283 289 292 307 290 239 279 316 320 327 331 320 318 330 326 326 324 317 315 320 314 278 247 236 228 223 219 214 207 206 202 200 198 193 201 208 212 216 220 219 226 223 224 225 239
197 217 219 268 265 288 299 282 36 313 300 306 297 313 318 314 316 307 314 316 320 320 320 326 321 305 260 234 226 220 214 205 200 195 190 191 200 207 214 214 212 212 216 216 219 222 221 222 225
280 279 260 229 240 233 287 278 288 356 327 309 286 305 309 303 307 304 300 306 310 317 325 323 335 323 281 238 222 218 209 191 191 190 193 200 207 209 205 197 198 200 201 198 197 201 208 207 206
Wind_Speed_850mb
15 15 14 12 14 12 23 13 4 10 9 7 19 17 14 26 13 6 2 22 38 51 52 52 54 58 59 59 55 49 49 47 45 41 36 30 30 34 36 37 36 33 30 27 26 25 26 27 27
17 14 14 12 16 20 21 10 23 2 9 15 8 13 16 15 8 8 6 27 42 49 54 56 56 57 59 58 54 50 51 51 49 42 35 30 32 36 37 36 34 32 30 28 26 25 26 26 24
15 12 21 11 23 24 12 15 13 5 5 14 9 6 11 7 8 7 10 32 46 45 53 57 57 58 58 57 52 50 51 53 50 43 36 33 36 38 39 38 35 32 30 28 26 25 25 24 21
11 14 17 21 30 23 4 11 1 6 4 13 13 8 5 10 9 6 22 34 43 43 48 54 59 59 58 55 50 48 50 55 51 44 38 35 38 41 40 39 36 33 30 28 25 24 23 21 18
20 19 22 31 39 16 9 12 11 11 12 15 18 12 2 15 17 11 25 33 38 39 43 54 58 57 56 53 50 49 51 56 50 45 40 38 40 41 40 37 35 32 29 27 24 22 19 17 13
30 27 29 36 38 17 9 19 17 23 14 14 17 18 13 17 14 11 22 27 34 39 40 57 57 56 54 53 51 49 54 55 52 48 43 42 43 42 41 38 35 32 29 26 23 21 17 13 10
35 25 39 42 34 22 19 20 27 17 17 20 20 17 6 22 17 5 17 22 34 38 40 48 60 58 55 53 53 51 51 54 54 52 48 46 44 43 42 39 35 31 27 25 22 19 16 13 10
33 25 42 41 32 28 18 28 28 27 26 21 14 3 7 32 21 8 15 22 33 38 41 42 51 61 59 57 53 51 49 52 54 55 52 49 47 45 43 39 36 32 29 26 21 18 14 11 8
23 22 31 41 27 24 15 30 38 26 29 31 33 23 22 23 20 10 19 25 34 41 44 44 49 54 54 51 58 54 51 50 53 55 55 52 48 48 46 42 39 35 32 28 22 18 15 12 9
30 26 35 8 4 14 22 30 34 35 42 38 39 36 26 18 13 15 26 32 41 44 47 47 52 53 54 49 50 61 56 55 56 59 60 56 45 39 36 45 41 39 35 31 26 21 16 13 9
30 30 23 10 19 27 36 36 38 40 42 48 40 45 36 31 29 25 30 38 41 43 45 47 50 52 53 50 47 52 46 47 57 62 63 59 43 40 41 35 45 42 39 33 28 23 19 16 16
16 22 21 23 27 31 35 40 44 44 50 47 47 47 49 46 39 33 30 38 42 44 45 48 50 54 57 50 49 47 49 49 47 57 65 57 52 50 44 34 34 41 32 30 28 21 22 18 15
25 13 19 24 24 30 33 40 39 44 37 39 46 46 49 50 46 40 35 33 40 47 49 51 52 54 62 66 52 52 52 51 50 52 64 59 54 52 49 36 32 29 28 29 29 25 22 17 15
15 13 16 17 22 26 30 37 37 26 18 29 32 37 39 44 48 46 40 37 39 47 51 52 57 60 62 68 70 68 64 53 53 50 62 72 68 63 60 57 52 43 34 27 26 26 23 21 17
13 19 21 25 29 20 26 32 40 39 37 28 26 31 35 38 40 45 43 40 38 47 49 55 59 58 65 66 70 70 60 56 55 55 65 72 74 72 67 61 56 53 49 40 35 33 28 24 22
19 14 22 17 13 15 13 26 11 17 18 25 28 28 30 33 32 31 32 30 29 39 43 50 51 57 63 67 72 76 69 66 54 57 66 77 77 75 72 64 61 55 49 45 43 39 30 23 22
18 20 13 9 14 15 23 23 3 13 32 40 38 35 33 33 35 32 34 30 28 37 41 45 52 55 62 62 56 59 62 60 54 55 56 71 80 79 76 66 47 53 50 47 49 43 40 28 26
10 18 15 20 8 18 27 34 33 36 36 39 37 40 38 36 37 33 31 33 35 35 38 43 49 55 52 50 54 51 54 57 57 58 59 73 70 67 76 71 69 64 47 39 41 45 39 38 26
13 16 21 17 17 24 29 32 31 38 39 41 39 34 36 36 33 33 33 37 42 46 50 53 56 61 52 56 56 55 61 60 57 58 63 67 74 87 88 76 76 66 60 55 55 53 50 40 40
20 23 25 19 21 22 30 36 34 36 42 44 42 40 40 41 41 37 36 34 45 53 57 63 66 71 70 61 60 56 54 54 52 52 56 63 71 71 76 71 66 66 63 67 60 60 55 49 39
24 23 22 27 26 31 40 41 34 31 33 33 41 46 48 49 47 46 43 37 36 48 57 68 75 76 78 74 61 62 53 50 53 61 62 69 82 78 80 74 76 72 78 75 67 69 65 45 37
23 9 17 27 27 28 28 35 35 29 28 29 38 43 46 48 46 41 42 43 43 39 39 51 71 84 83 85 64 71 76 69 74 66 62 62 75 82 81 82 86 88 91 80 62 65 64 54 43
19 9 22 31 33 37 40 27 32 34 33 27 20 28 38 51 59 58 50 50 46 41 40 43 49 67 86 75 86 74 72 63 50 51 58 58 59 72 75 79 78 80 80 69 53 53 51 56 49
21 27 31 33 32 29 35 19 12 21 28 27 36 48 50 49 46 34 37 37 42 43 43 44 47 56 66 76 83 87 83 78 57 56 58 57 48 58 66 69 72 70 66 60 59 54 50 56 68
19 25 20 25 23 24 13 20 21 35 21 22 28 40 41 34 34 32 33 31 35 42 46 47 49 53 55 63 75 85 88 74 75 63 54 49 53 51 60 70 67 61 63 54 51 53 55 55 56
10 13 17 26 26 34 39 19 15 14 11 8 12 17 19 26 28 26 26 33 34 39 42 39 46 53 50 55 67 72 76 72 70 64 55 54 51 50 51 56 55 53 48 46 48 50 51 57 62
4 17 15 23 32 30 26 29 28 14 9 10 10 16 20 28 37 42 41 41 42 42 46 46 39 46 51 57 59 64 68 70 67 62 59 52 55 51 47 44 45 47 47 46 45 43 48 53 52
17 10 12 9 11 20 18 32 27 6 13 18 26 29 38 40 41 45 48 45 42 41 44 46 41 37 46 53 58 64 69 69 61 57 54 54 48 46 43 43 43 44 45 41 46 41 40 44 45
13 16 12 9 9 10 19 17 16 25 26 30 21 32 43 40 45 44 49 47 44 41 39 43 43 36 38 47 54 59 57 59 58 54 51 50 52 52 51 43 39 39 40 41 42 40 38 41 40
20 25 22 15 14 14 15 35 26 13 18 25 40 58 43 38 43 40 46 47 45 43 41 36 38 34 27 40 46 53 54 57 56 56 56 54 50 46 40 35 33 32 31 32 32 33 33 32 31
Wind_Direction_850mb
304 312 300 254 238 235 240 214 351 189 198 354 293 263 300 321 308 6 136 177 166 166 176 181 179 176 176 178 180 180 180 178 173 168 164 162 163 160 157 154 155 155 153 150 145 143 139 134 133
285 310 268 255 249 219 212 209 204 42 332 330 303 238 251 271 316 307 106 181 167 170 177 181 182 180 179 182 185 186 186 183 178 173 171 170 169 164 162 160 161 159 157 151 147 142 141 136 133
274 292 268 236 237 241 243 178 106 328 46 2 323 279 318 344 326 291 243 173 165 170 176 182 181 182 183 184 187 189 190 186 182 178 178 179 174 169 167 166 165 162 158 153 149 145 144 142 135
237 240 242 243 231 225 264 141 223 321 121 3 344 239 263 25 335 315 159 160 168 171 172 185 183 182 184 183 184 185 188 188 187 186 186 185 178 175 174 171 168 167 162 158 154 151 150 146 142
221 242 245 231 235 221 225 256 298 303 318 345 350 349 60 24 18 148 163 163 170 174 175 183 185 185 185 184 184 184 188 189 193 194 194 190 184 182 178 176 174 171 169 166 161 156 153 150 151
217 234 238 233 226 221 253 266 271 287 288 312 346 323 61 36 18 138 166 169 178 178 180 185 188 189 188 188 188 189 189 194 198 202 201 196 189 186 183 181 180 178 176 172 168 163 157 156 160
229 215 236 246 243 222 252 268 266 285 285 292 332 313 113 18 3 157 177 180 183 181 181 187 188 193 192 193 194 196 199 201 203 205 204 198 194 191 189 186 184 185 181 179 175 168 164 169 178
225 241 242 243 245 237 227 256 256 258 275 290 280 236 322 338 344 200 192 185 186 188 185 188 188 194 196 197 200 200 206 207 206 206 205 200 196 196 194 193 191 189 186 187 183 178 179 193 207
210 227 234 235 226 235 240 248 249 264 263 269 273 271 298 320 339 218 196 191 190 194 192 190 192 195 195 198 202 205 205 209 210 209 207 203 201 200 200 198 195 195 193 193 191 192 197 210 231
209 222 237 248 229 238 232 249 260 269 268 259 267 268 273 283 310 259 224 210 199 200 200 196 196 195 194 198 201 203 206 207 209 211 209 205 200 205 206 206 200 198 199 198 196 200 210 224 241
219 239 237 209 229 237 251 252 254 260 261 260 268 272 263 267 274 265 246 229 220 208 205 203 203 197 195 197 199 199 201 204 207 210 209 204 203 203 200 208 202 205 204 203 205 206 216 229 234
223 235 242 230 233 239 254 262 261 254 263 269 269 267 272 267 265 261 258 239 228 222 215 208 208 203 201 199 200 199 200 201 202 206 207 203 204 207 201 202 203 207 213 204 207 210 214 239 235
225 210 235 242 244 251 257 258 260 258 257 263 265 263 264 266 263 259 255 247 236 228 222 216 210 211 212 205 205 202 201 204 204 206 210 205 205 209 205 203 203 209 210 216 216 213 225 225 220
173 202 217 232 243 242 251 259 249 246 234 250 257 261 259 259 259 258 255 254 240 231 226 217 217 220 220 218 214 214 213 209 205 207 213 213 212 215 213 215 217 218 214 213 225 229 231 226 224
183 232 213 231 239 252 272 262 252 258 262 269 265 264 260 256 259 254 255 260 248 234 229 224 220 223 229 227 222 222 215 208 210 207 215 217 217 217 213 220 223 225 228 226 231 239 235 239 230
234 243 250 144 209 225 220 268 205 199 260 269 277 276 265 259 263 261 263 272 255 240 231 228 221 222 230 232 223 225 219 219 213 211 219 223 221 221 222 223 224 227 228 231 231 237 237 226 238
204 263 219 263 215 261 237 281 301 251 279 281 275 267 269 268 263 268 274 275 281 246 233 231 230 221 232 229 220 219 221 217 216 216 216 226 223 224 224 222 223 228 232 229 236 234 236 236 233
229 237 227 266 263 240 269 273 278 278 275 271 276 275 267 265 266 270 276 280 277 271 244 238 234 231 227 222 222 216 216 217 214 217 217 222 227 230 231 231 233 233 228 235 233 234 239 235 236
252 256 259 261 266 268 273 278 283 287 282 274 268 264 269 274 273 276 288 289 281 273 270 258 247 238 223 223 221 214 217 218 215 217 216 227 228 227 228 226 236 236 240 233 239 244 239 246 238
236 246 252 256 249 261 268 275 281 278 279 276 275 272 270 269 266 266 270 276 272 266 262 259 252 247 241 228 222 216 216 218 219 218 219 223 227 229 231 223 230 239 244 242 239 242 244 244 240
231 257 278 285 297 273 266 272 267 261 236 263 274 275 271 268 267 267 263 264 273 270 264 256 251 247 247 240 233 226 221 220 225 221 224 230 227 231 235 233 221 230 230 247 247 249 246 236 235
259 264 276 286 286 289 323 292 289 278 277 263 268 275 275 273 270 263 261 263 262 272 271 265 254 246 243 244 227 230 235 230 241 235 233 234 229 228 232 229 227 229 232 239 243 244 241 237 235
281 316 285 289 283 291 281 269 280 281 282 294 301 300 282 279 279 274 272 267 263 266 267 265 260 249 242 233 234 225 224 232 232 227 229 234 229 223 222 224 226 229 236 238 234 241 244 228 220
302 278 277 266 266 270 280 306 308 313 327 322 311 309 308 302 291 300 292 286 281 282 277 271 263 256 245 234 233 226 225 222 223 225 221 228 219 225 223 218 219 226 233 230 239 238 237 242 237
260 266 279 279 254 259 323 304 288 304 0 327 315 306 296 313 310 307 301 308 303 300 289 275 266 259 253 235 227 228 227 225 218 219 213 206 200 209 217 216 217 221 227 227 232 240 244 244 246
283 306 285 289 290 299 315 278 264 8 59 329 354 5 353 338 324 317 318 321 323 324 320 298 268 256 248 237 228 226 225 221 221 219 212 207 207 211 212 215 216 220 224 225 226 232 239 243 247
177 253 358 292 276 267 256 256 256 231 178 254 310 328 338 338 334 334 325 318 316 316 323 320 293 258 244 235 228 223 221 214 214 210 205 206 207 208 204 209 214 222 224 223 224 230 235 235 247
262 15 253 217 283 289 292 307 290 239 279 316 320 327 331 320 318 330 326 326 324 317 315 320 314 278 247 236 228 223 219 214 207 206 202 200 198 193 201 208 212 216 220 219 226 223 224 225 239
197 217 219 268 265 288 299 282 36 313 300 306 297 313 318 314 316 307 314 316 320 320 320 326 321 305 260 234 226 220 214 205 200 195 190 191 200 207 214 214 212 212 216 216 219 222 221 222 225
280 279 260 229 240 233 287 278 288 356 327 309 286 305 309 303 307 304 300 306 310 317 325 323 335 323 281 238 222 218 209 191 191 190 193 200 207 209 205 197 198 200 201 198 197 201 208 207 206